TimeCST,TemperatureF,Dew PointF,Humidity,Sea Level PressureIn,VisibilityMPH,Wind Direction,Wind SpeedMPH,Gust SpeedMPH,PrecipitationIn,Events,Conditions,WindDirDegrees,DateUTC
12:53 AM,30.9,28.0,89,30.32,9.0,SW,4.6,-,N/A,,Clear,220,2013-01-03 06:53:00
1:53 AM,30.0,28.0,92,30.33,7.0,WSW,3.5,-,N/A,,Clear,240,2013-01-03 07:53:00
2:53 AM,30.0,27.0,88,30.33,7.0,Calm,Calm,-,N/A,,Clear,0,2013-01-03 08:53:00
3:53 AM,28.0,26.1,92,30.35,7.0,Calm,Calm,-,N/A,,Clear,0,2013-01-03 09:53:00
4:53 AM,28.9,26.1,89,30.35,8.0,Calm,Calm,-,N/A,,Clear,0,2013-01-03 10:53:00
5:53 AM,28.9,25.0,85,30.35,9.0,Calm,Calm,-,N/A,,Clear,0,2013-01-03 11:53:00
6:53 AM,28.0,24.1,85,30.38,8.0,Calm,Calm,-,N/A,,Clear,0,2013-01-03 12:53:00
7:53 AM,28.0,25.0,88,30.42,6.0,SW,3.5,-,N/A,,Clear,230,2013-01-03 13:53:00
8:53 AM,32.0,27.0,82,30.42,8.0,NNW,5.8,-,N/A,,Clear,330,2013-01-03 14:53:00
9:53 AM,36.0,28.0,73,30.45,10.0,North,6.9,-,N/A,,Clear,350,2013-01-03 15:53:00
10:53 AM,39.9,30.9,70,30.46,10.0,North,4.6,-,N/A,,Clear,360,2013-01-03 16:53:00
11:53 AM,43.0,30.9,62,30.42,10.0,North,9.2,-,N/A,,Clear,350,2013-01-03 17:53:00
12:53 PM,46.0,28.9,51,30.39,10.0,NNE,8.1,-,N/A,,Clear,30,2013-01-03 18:53:00
1:53 PM,46.9,30.0,52,30.39,10.0,North,8.1,-,N/A,,Clear,360,2013-01-03 19:53:00
2:53 PM,46.9,28.0,48,30.39,10.0,North,3.5,-,N/A,,Clear,360,2013-01-03 20:53:00
3:53 PM,46.9,26.1,44,30.40,10.0,North,6.9,-,N/A,,Clear,360,2013-01-03 21:53:00
4:53 PM,44.1,28.0,53,30.41,10.0,Calm,Calm,-,N/A,,Clear,0,2013-01-03 22:53:00
5:53 PM,41.0,30.9,67,30.42,10.0,Calm,Calm,-,N/A,,Clear,0,2013-01-03 23:53:00
6:53 PM,37.9,30.0,73,30.43,10.0,Calm,Calm,-,N/A,,Clear,0,2013-01-04 00:53:00
7:53 PM,37.9,28.9,70,30.45,10.0,Calm,Calm,-,N/A,,Clear,0,2013-01-04 01:53:00
8:53 PM,39.0,28.9,67,30.45,10.0,Calm,Calm,-,N/A,,Clear,0,2013-01-04 02:53:00
9:53 PM,37.9,32.0,79,30.45,10.0,Calm,Calm,-,N/A,,Clear,0,2013-01-04 03:53:00
10:53 PM,36.0,30.0,79,30.45,10.0,Calm,Calm,-,N/A,,Clear,0,2013-01-04 04:53:00
11:53 PM,37.0,30.0,76,30.46,10.0,Calm,Calm,-,N/A,,Overcast,0,2013-01-04 05:53:00